Location: Quebec
(46.8000°N, 71.2500°W)
Time: 17:34:51
(UTC-05:00)

Envisat - Pass Details

Date: 08 October 2017
Orbit: 764 x 766 km, 98.2° (Epoch: 18 December)

Event Time Altitude Azimuth Distance (km) Brightness Sun altitude
Exits shadow 19:01:13 12° 98° (E) 2,181 4.7 -9.5°
Maximum altitude 19:04:12 19° 59° (ENE) 1,774 4.4 -10.0°
Drops below altitude 10° 19:07:41 10° 16° (NNE) 2,315 5.4 -10.6°
Sets 19:10:36 0° 359° (N) 3,247 6.3 -11.1°
